(15) Eunomia
ephemeris date magn radius delta ra dec elong phase
Today13 Jun 202611.13.118 AU2.834 AU11h33m-11°11'96.6°18.9°
Opposition9 Jun 20279.52.928 AU1.924 AU17h05m-33°11'169.7°3.6°
(15) Eunomia - 2026-06-13
astro.vanbuitenen.nl


 
-1 year
-1 month
-1 day
Now
+1 day
+1 month
+1 year

The interactive orbit chart above shows the body's path through the solar system and its position at the given date. Green and blue lines are shown perpendicular to the ecliptic plane: Green if the path is above the ecliptic plane, blue if it is below. (Left-click and drag to rotate the view; Right-click and drag to move the view; Use scroll wheel to zoom in our out.)

The orbital elements of Eunomia are:

            e (Eccentricity)                : 0.1877708
            a (Semimajor axis)              : 2.6419587
            i (Inclination)                 : 11.76139
            Ω (Longitude of ascending node) : 292.88078
            ω (Argument of perihelion)      : 98.46132
            M (Mean anomaly)                : 159.68911
            Epoch                           : 2026 Jun 09

            L (Longitude of perihelion)     : 211.52085
            B (Latitude of perihelion)      : 11.63157
            P (Orbital period in years)     : 4.29            
        

The light curve chart below shows the estimated development of the minor planet's magnitude.


The all-sky chart below shows the path of the minor planet over the same period as the light curve. The current position is marked yellow.





The following chart shows the path of the minor planet in the next few days. The field of view is optimized for (~10x50) binoculars and finderscopes.




Ephemerides:
Date       Time       RA (2000)    DEC (2000)    delta   radius  elong  phase   PA    magn
2026-06-13 00:00 UT   11 33 17.0   -11 11 08     2.834    3.118   96.6   18.9   112   11.1 
2026-06-13 13:47 UT   11 33 37.1   -11 11 05     2.842    3.118   96.1   18.9   113   11.1 
2026-06-14 00:00 UT   11 33 52.1   -11 11 04     2.848    3.118   95.8   18.9   113   11.1 
2026-06-15 00:00 UT   11 34 28.2   -11 11 06     2.862    3.119   95.0   18.9   113   11.1 
2026-06-16 00:00 UT   11 35 05.1   -11 11 17     2.876    3.119   94.2   19.0   113   11.2 
2026-06-17 00:00 UT   11 35 42.9   -11 11 34     2.890    3.120   93.4   19.0   113   11.2 
2026-06-18 00:00 UT   11 36 21.6   -11 11 59     2.905    3.120   92.6   19.0   113   11.2 
2026-06-19 00:00 UT   11 37 01.2   -11 12 31     2.919    3.121   91.8   19.0   114   11.2 
2026-06-20 00:00 UT   11 37 41.6   -11 13 11     2.933    3.121   91.0   19.0   114   11.2 
2026-06-21 00:00 UT   11 38 22.8   -11 13 57     2.947    3.122   90.3   19.0   114   11.2 
2026-06-22 00:00 UT   11 39 04.8   -11 14 50     2.961    3.122   89.5   19.0   114   11.2 
2026-06-23 00:00 UT   11 39 47.6   -11 15 51     2.975    3.122   88.7   19.0   114   11.2 
2026-06-24 00:00 UT   11 40 31.2   -11 16 58     2.989    3.123   88.0   19.0   114   11.2 
2026-06-25 00:00 UT   11 41 15.6   -11 18 12     3.003    3.123   87.2   19.0   115   11.2 
2026-06-26 00:00 UT   11 42 00.7   -11 19 33     3.017    3.124   86.5   19.0   115   11.3 
2026-06-27 00:00 UT   11 42 46.6   -11 21 00     3.031    3.124   85.7   18.9   115   11.3 
2026-06-28 00:00 UT   11 43 33.2   -11 22 34     3.045    3.124   85.0   18.9   115   11.3 
2026-06-29 00:00 UT   11 44 20.5   -11 24 15     3.059    3.125   84.2   18.9   115   11.3 
2026-06-30 00:00 UT   11 45 08.5   -11 26 01     3.073    3.125   83.5   18.9   115   11.3 
2026-07-01 00:00 UT   11 45 57.3   -11 27 55     3.087    3.126   82.7   18.8   115   11.3 
2026-07-02 00:00 UT   11 46 46.7   -11 29 54     3.101    3.126   82.0   18.8   116   11.3 
2026-07-03 00:00 UT   11 47 36.8   -11 31 60     3.115    3.126   81.3   18.7   116   11.3 
2026-07-04 00:00 UT   11 48 27.6   -11 34 12     3.129    3.127   80.5   18.7   116   11.3 
2026-07-05 00:00 UT   11 49 19.0   -11 36 29     3.143    3.127   79.8   18.7   116   11.3 
2026-07-06 00:00 UT   11 50 11.1   -11 38 53     3.156    3.127   79.1   18.6   116   11.3 
2026-07-07 00:00 UT   11 51 03.8   -11 41 23     3.170    3.128   78.4   18.6   116   11.4 
2026-07-08 00:00 UT   11 51 57.1   -11 43 59     3.184    3.128   77.6   18.5   116   11.4 
2026-07-09 00:00 UT   11 52 51.1   -11 46 40     3.198    3.128   76.9   18.5   117   11.4 
2026-07-10 00:00 UT   11 53 45.7   -11 49 28     3.211    3.129   76.2   18.4   117   11.4 
2026-07-11 00:00 UT   11 54 40.9   -11 52 21     3.225    3.129   75.5   18.3   117   11.4 
2026-07-12 00:00 UT   11 55 36.7   -11 55 19     3.238    3.129   74.8   18.3   117   11.4 
2026-07-13 00:00 UT   11 56 33.1   -11 58 23     3.252    3.130   74.1   18.2   117   11.4 


    Terminology:
            
    delta:  distance between minor planet and earth in AU
    radius: distance between minor planet and sun in AU
    magn:   magnitude (brightness) estimate    
    ra:     right ascension in hours (24h = 360deg)
    dec:    declination in degrees
    elong:  elongation in degrees (angle sun-earth-minor planet)    
    phase:  phase angle in degrees (angle sun-minor planet-earth)        
    AU:     Astronomical Unit (mean distance between earth and sun: 149597870.7 km
    

Orbital elements provided by the MPC (Minor Planet Center).
Calculations by a modified version of AAPlus, a C# implementation of the AA+ project by PJ Naughter from the algorithms presented in the book "Astronomical Algorithms" by Jean Meeus.
NGC2000 dso catalog and star labels from VizieR as provided by the Strasbourg astronomical Data Center.
Tycho2 catalog from the ESO archive.